Regional Weather Roundup
Issued by NWS

Home | Current Version | Previous Version | Text Only | Print | Product List | Glossary Off
Versions: 1 2 3 4 5 6 7 8 9 10 11 12 13 14 15 16 17 18 19 20 21 22 23 24 25 26 27 28 29 30 31 32 33 34 35 36 37 38 39 40 41 42 43 44 45 46 47 48 49 50

000
ASUS43 KLOT 241200
RWRIL

ILLINOIS REGIONAL WEATHER ROUNDUP
NATIONAL WEATHER SERVICE CHICAGO/ROMEOVILLE IL
600 AM CST MON NOV 24 2014

NOTE: "FAIR" INDICATES FEW OR NO CLOUDS BELOW 12,000 FEET WITH NO
SIGNIFICANT WEATHER AND/OR OBSTRUCTIONS TO VISIBILITY.

* THESE STATIONS ARE NOT UNDER NWS QUALITY CONTROL. THEY ALSO MAY NOT
  REPORT WEATHER SUCH AS PRECIPITATION OR FOG.

ILZ001-002-007-009-015-016-024-241300-
NORTHWEST ILLINOIS

CITY           SKY/WX    TMP DP  RH WIND       PRES   REMARKS
MOLINE         LGT SNOW  33  30  88 W23G31    29.24R FOG     WCI  21
6HR MIN TEMP:  33; 6HR MAX TEMP:  46; 6HR PCP:  0.03;

STERLING*      CLOUDY    39  36  87 W17G24    29.15R WCI  30
$$

ILZ003-004-008-010-011-017-018-241300-
NORTH CENTRAL ILLINOIS

CITY           SKY/WX    TMP DP  RH WIND       PRES   REMARKS
ROCKFORD       CLOUDY    41  39  93 NW15G23   29.12R FOG
6HR MIN TEMP:  41; 6HR MAX TEMP:  47; 6HR PCP: TRACE;

$$

ILZ005-006-012>014-019>023-241300-
NORTHEAST ILLINOIS

CITY           SKY/WX    TMP DP  RH WIND       PRES   REMARKS
CHICAGO-OHARE  DRIZZLE   47  46  97 W6        29.06F
6HR MIN TEMP:  47; 6HR MAX TEMP:  49; 6HR PCP:  0.12;

CHICAGO-MIDWAY DRIZZLE   50  48  93 W6        29.08S FOG
6HR MIN TEMP:  50; 6HR MAX TEMP:  51; 6HR PCP:  0.10;

AURORA         LGT RAIN  47  44  90 W8        29.09R FOG
6HR MIN TEMP:  47; 6HR MAX TEMP:  50; 6HR PCP:  0.10;

WAUKEGAN       CLOUDY    46  45  96 SW5       29.06R FOG
6HR MIN TEMP:  45; 6HR MAX TEMP:  47; 6HR PCP:  0.05;

DUPAGE AIRPORT LGT RAIN  47  45  93 W6        29.07S
6HR MIN TEMP:  47; 6HR MAX TEMP:  49; 6HR PCP:  0.06;

WHEELING       CLOUDY    48  47  96 W5        29.09R FOG
6HR MIN TEMP:  48; 6HR MAX TEMP:  49; 6HR PCP:  0.08;

NORTHERLY ISL    N/A     48  46  93 W6          N/A
$$

LMZ740>746-241300-
SOUTHERN LAKE MICHIGAN

STATION/POSITION SKY/WX   TEMP    WIND        PRES    VSBY  WAVE
                          AIR SEA DIR/SP/G                  HT/PER
                          (F)     (DEG/KT/KT) (MB)    (MI)  (FT/S)
SOUTHERN BUOY              46 42  220/ 12/ 12  984.0R         1/ 3
WAUKEGAN HARBOR            48     250/  9/ 11   N/A
HARRISON CRIB              48     200/  8/  9   N/A
BURNHAM HARBOR             49     250/  4/  9   N/A
CALUMET HARBOR             49     200/  5/  6  983.9F
MICHIGAN CITY              49     170/ 10/ 13   N/A
$$

ILZ025>027-034>036-040-047-049-050-058-095>099-241300-
WEST-CENTRAL ILLINOIS

CITY           SKY/WX    TMP DP  RH WIND       PRES   REMARKS
QUINCY         CLOUDY    34  30  85 W20G28    29.39R WCI  23
$$

ILZ028>032-037-038-041>044-048-051>054-059>061-241300-
CENTRAL ILLINOIS

CITY           SKY/WX    TMP DP  RH WIND       PRES   REMARKS
DECATUR        LGT RAIN  40  39  97 W20G32    29.28R FOG
PEORIA         RAIN      37  32  82 W14G29    29.26R WCI  28
6HR MIN TEMP:  37; 6HR MAX TEMP:  52; 6HR PCP:  0.29;

SPRINGFIELD    LGT SNOW  34  33  96 W21G26    29.33R FOG     WCI  22
6HR MIN TEMP:  34; 6HR MAX TEMP:  52; 6HR PCP:  0.35;

TAYLORVILLE    NOT AVBL
$$

ILZ033-039-045-046-055>057-062-063-241300-
EAST-CENTRAL ILLINOIS

CITY           SKY/WX    TMP DP  RH WIND       PRES   REMARKS
CHAMPAIGN      LGT RAIN  42  42 100 W25       29.20R
MATTOON        LGT RAIN  42  40  92 W20G36    29.27R
$$

ILZ079-100>102-241300-
SOUTHWEST ILLINOIS

CITY           SKY/WX    TMP DP  RH WIND       PRES   REMARKS
BELLEVILLE     CLOUDY    38  37  98 W18G24    29.45R WCI  28
CAHOKIA*       CLOUDY    39  34  82 W15G23    29.46R WCI  31
$$

ILZ064>066-069>071-074>076-080>082-084>086-088>090-092>094-241300-
SOUTH-CENTRAL ILLINOIS

CITY           SKY/WX    TMP DP  RH WIND       PRES   REMARKS
CARBONDALE     CLOUDY    43  37  79 W14G29    29.47R
6HR MIN TEMP:  43; 6HR MAX TEMP:  60; 6HR PCP:  0.28;

MT. VERNON     CLOUDY    43  36  75 W18G25    29.42R
$$

ILZ067-068-072-073-078-083-087-091-241300-
SOUTHEAST ILLINOIS

CITY           SKY/WX    TMP DP  RH WIND       PRES   REMARKS
LAWRENCEVILLE  CLOUDY    50  50 100 W28G38    29.29R
$$

ABBREVIATIONS USED IN REMARKS
   TC - TEMPERATURE IN CELSIUS
  WCI - WIND CHILL INDEX
   HX - HEAT INDEX
  VSB - VISIBILITY
$$



USA.gov is the U.S. government's official web portal to all federal, state and local government web resources and services.